Location: Newark
(7.0858°N, 171.3717°E)
Time: 17:14:38
(UTC+00:00)

Altair - Pass Details

Date: 26 November 2020
Orbit: 1501 x 1682 km, 47.2° (Epoch: 20 January)

Event Time Altitude Azimuth Distance (km) Brightness Sun altitude
Rises 07:22:49 0° 226° (SW) 4,839 11.3 -16.7°
Reaches altitude 10° 07:26:00 10° 228° (SW) 3,829 10.6 -17.5°
Maximum altitude 07:35:39 71° 310° (NW) 1,642 7.7 -19.7°
Enters shadow 07:42:35 20° 30° (NNE) 2,965 8.6 -21.3°
